Location: Newark
(44.9333°N, 0.5667°E)
Time: 07:11:00
(UTC+00:00)

N. Korean satellite - Pass Details

Date: 22 December 2019
Orbit: 454 x 507 km, 97.2° (Epoch: 27 January)

Event Time Altitude Azimuth Distance (km) Brightness Sun altitude
Rises 06:08:50 0° 7° (N) 2,505 10.1 -14.2°
Reaches altitude 10° 06:10:55 10° 3° (N) 1,618 9.0 -13.8°
Maximum altitude 06:14:18 54° 286° (WNW) 564 6.5 -13.3°
Drops below altitude 10° 06:17:38 10° 208° (SSW) 1,590 9.1 -12.7°
Sets 06:19:40 0° 204° (SSW) 2,457 10.1 -12.4°
